This is the latest recevied weather packets stored in our database for station/object KC5DAQ-27. If no packets are shown the sender has not sent any weather packets the latest 10 day(s).
| Time | Temp. | Humidity | Pressure | Rain* | Wind** | Luminosity | Snow |
|---|---|---|---|---|---|---|---|
| 1778262433 | 22.22° C | 88% | 1002.7 hPa | 0 mm | - | 612 W/m² | - |
| 1778262371 | 22.22° C | 88% | 1002.7 hPa | 0 mm | - | 593 W/m² | - |
| 1778262312 | 22.22° C | 88% | 1002.7 hPa | 0 mm | - | 582 W/m² | - |
| 1778262253 | 22.22° C | 88% | 1002.8 hPa | 0 mm | - | 540 W/m² | - |
| 1778262191 | 22.22° C | 88% | 1002.8 hPa | 0 mm | - | 531 W/m² | - |
| 1778262132 | 22.22° C | 88% | 1002.7 hPa | 0 mm | - | 542 W/m² | - |
| 1778262071 | 22.22° C | 88% | 1002.8 hPa | 0 mm | - | 559 W/m² | - |
| 1778262012 | 22.22° C | 88% | 1002.8 hPa | 0 mm | - | 677 W/m² | - |
| 1778261951 | 22.22° C | 88% | 1002.9 hPa | 0 mm | - | 540 W/m² | - |
| 1778261891 | 22.22° C | 88% | 1002.8 hPa | 0 mm | - | 526 W/m² | - |
| 1778261832 | 22.22° C | 89% | 1002.9 hPa | 0 mm | - | 531 W/m² | - |
| 1778261771 | 21.67° C | 89% | 1003.1 hPa | 0 mm | - | 536 W/m² | - |
| 1778261709 | 21.67° C | 88% | 1003.2 hPa | 0 mm | - | 505 W/m² | - |
| 1778261647 | 21.67° C | 88% | 1003.2 hPa | 0 mm | - | 469 W/m² | - |
| 1778261585 | 21.67° C | 88% | 1003.3 hPa | 0 mm | - | 433 W/m² | - |
| 1778261524 | 21.67° C | 88% | 1003.4 hPa | 0 mm | - | 403 W/m² | - |
| 1778261464 | 21.67° C | 88% | 1003.3 hPa | 0 mm | - | 383 W/m² | - |
| 1778261404 | 21.67° C | 88% | 1003.4 hPa | 0 mm | - | 373 W/m² | - |
| 1778261343 | 21.67° C | 88% | 1003.4 hPa | 0 mm | - | 366 W/m² | - |
| 1778261284 | 21.67° C | 88% | 1003.4 hPa | 0 mm | - | 362 W/m² | - |
| 1778261222 | 21.67° C | 88% | 1003.4 hPa | 0 mm | - | 359 W/m² | - |
| 1778261162 | 21.67° C | 88% | 1003.4 hPa | 0 mm | - | 339 W/m² | - |
| 1778261102 | 21.67° C | 88% | 1003.4 hPa | 0 mm | - | 320 W/m² | - |
| 1778261043 | 21.67° C | 88% | 1003.6 hPa | 0 mm | - | 299 W/m² | - |
| 1778260982 | 21.67° C | 88% | 1003.6 hPa | 0 mm | - | 280 W/m² | - |
* Rain latest hour (hover to see other rain measurements)
** Current wind speed in m/s (hover to see current wind gust speed)